THY5YG LTBS-UUWW

Flight info

Callsign THY5YG
Flight time N/A
Altitude 34000
Route KEKIK N127 ULKAN UN127 LMO DCT ATFIR N133 USALI DCT LOMOS DCT OVDOT DCT SODGO DCT NEKUL DCT BUXLE DCT MEGIK DCT KENIN/N0455F350 DCT OFEDE DCT LIZUP DCT DUKAT/K0856F350 DCT MOSON T52 BILRU BILRU3B
Aircraft A321/M-SDE3FGHIRWY/LB1

Departure

Time N/A
Airport Dalaman International Airport (LTBS)

Arrival

Time 2026-04-28 06:43
Airport Vnukovo International Airport (UUWW)
Time Latitude Longitude Altitude Speed Heading
2026-04-28 04:51 49.74104 22.23734 34256 ft 430 kts
2026-04-28 04:52 49.77056 22.24437 34255 ft 430 kts
2026-04-28 04:52 49.82977 22.25815 34263 ft 430 kts
2026-04-28 04:53 49.88891 22.27178 34268 ft 429 kts
2026-04-28 04:53 49.94802 22.28551 34272 ft 429 kts
2026-04-28 04:54 50.00709 22.29935 34274 ft 429 kts
2026-04-28 04:54 50.06615 22.31323 34275 ft 429 kts
2026-04-28 04:55 50.12518 22.32701 34274 ft 429 kts
2026-04-28 04:55 50.18423 22.34091 34281 ft 429 kts
2026-04-28 04:56 50.24325 22.35499 34276 ft 429 kts
2026-04-28 04:56 50.29236 22.36664 34275 ft 429 kts
2026-04-28 04:57 50.35135 22.38046 34278 ft 429 kts
2026-04-28 04:57 50.41036 22.39445 34279 ft 429 kts
2026-04-28 04:58 50.46943 22.40854 34282 ft 429 kts
2026-04-28 04:58 50.52852 22.42266 34287 ft 429 kts
2026-04-28 04:59 50.58763 22.43686 34294 ft 430 kts
2026-04-28 04:59 50.64673 22.45102 34293 ft 430 kts
2026-04-28 05:00 50.70593 22.46530 34298 ft 430 kts
2026-04-28 05:00 50.76513 22.47957 34301 ft 430 kts
2026-04-28 05:01 50.82441 22.49386 34301 ft 430 kts
2026-04-28 05:01 50.88365 22.50814 34308 ft 430 kts
2026-04-28 05:02 50.94277 22.52252 34305 ft 430 kts
2026-04-28 05:02 51.00195 22.53711 34302 ft 430 kts
2026-04-28 05:03 51.06102 22.55159 34292 ft 430 kts
2026-04-28 05:03 51.12015 22.56594 34287 ft 429 kts
2026-04-28 05:04 51.17916 22.58045 34289 ft 429 kts
2026-04-28 05:04 51.23822 22.59502 34281 ft 429 kts
2026-04-28 05:05 51.29758 22.60965 34284 ft 429 kts
2026-04-28 05:05 51.35623 22.62416 34286 ft 429 kts
2026-04-28 05:06 51.41524 22.63876 34311 ft 429 kts
2026-04-28 05:06 51.47418 22.65343 34312 ft 429 kts
2026-04-28 05:07 51.53319 22.66820 34299 ft 429 kts
2026-04-28 05:07 51.59251 22.68314 34297 ft 429 kts
2026-04-28 05:08 51.65144 22.69792 34298 ft 428 kts
2026-04-28 05:08 51.71031 22.71267 34301 ft 428 kts
2026-04-28 05:09 51.76924 22.72761 34286 ft 428 kts
2026-04-28 05:09 51.82806 22.74246 34297 ft 428 kts
2026-04-28 05:10 51.88679 22.75727 34294 ft 427 kts
2026-04-28 05:10 51.94545 22.77221 34293 ft 427 kts
2026-04-28 05:11 52.00406 22.78717 34291 ft 426 kts
2026-04-28 05:11 52.06259 22.80209 34288 ft 425 kts
2026-04-28 05:12 52.12098 22.81705 34286 ft 424 kts
2026-04-28 05:12 52.17933 22.83201 34289 ft 424 kts
2026-04-28 05:13 52.23755 22.84697 34291 ft 423 kts
2026-04-28 05:13 52.29572 22.86202 34292 ft 423 kts
2026-04-28 05:14 52.35384 22.87712 34291 ft 422 kts
2026-04-28 05:14 52.41184 22.89221 34286 ft 422 kts
2026-04-28 05:15 52.46984 22.90732 34292 ft 422 kts
2026-04-28 05:15 52.52779 22.92236 34292 ft 422 kts
2026-04-28 05:16 52.58577 22.93755 34292 ft 422 kts
2026-04-28 05:16 52.64369 22.95285 34542 ft 420 kts
2026-04-28 05:17 52.70121 22.96801 35012 ft 417 kts
2026-04-28 05:17 52.72982 22.97556 35197 ft 418 kts
2026-04-28 05:17 52.78769 22.99082 35259 ft 423 kts
2026-04-28 05:18 52.84586 23.00622 35259 ft 423 kts
2026-04-28 05:18 52.90412 23.02160 35264 ft 424 kts
2026-04-28 05:19 52.95500 23.03516 35262 ft 424 kts
2026-04-28 05:19 53.01328 23.05080 35269 ft 424 kts
2026-04-28 05:20 53.07165 23.06642 35278 ft 425 kts
2026-04-28 05:20 53.13010 23.08210 35281 ft 425 kts
2026-04-28 05:21 53.18858 23.09779 35289 ft 426 kts
2026-04-28 05:21 53.24707 23.11352 35291 ft 426 kts
2026-04-28 05:22 53.30595 23.12955 35296 ft 426 kts
2026-04-28 05:22 53.36443 23.14545 35293 ft 426 kts
2026-04-28 05:23 53.42294 23.16141 35292 ft 426 kts
2026-04-28 05:23 53.48137 23.17731 35295 ft 425 kts
2026-04-28 05:24 53.53981 23.19321 35290 ft 425 kts
2026-04-28 05:24 53.59822 23.20925 35288 ft 425 kts
2026-04-28 05:25 53.65624 23.22531 35283 ft 425 kts
2026-04-28 05:25 53.71470 23.24147 35285 ft 425 kts
2026-04-28 05:26 53.77300 23.25766 35281 ft 425 kts
2026-04-28 05:26 53.83137 23.27391 35283 ft 425 kts
2026-04-28 05:27 53.88979 23.29017 35283 ft 425 kts
2026-04-28 05:27 53.94824 23.30645 35282 ft 426 kts
2026-04-28 05:28 54.00508 23.33702 35276 ft 441 kts 25°
2026-04-28 05:28 54.02986 23.36869 35262 ft 453 kts 38°
2026-04-28 05:28 54.05004 23.41070 35260 ft 465 kts 52°
2026-04-28 05:29 54.06377 23.46107 35257 ft 477 kts 68°
2026-04-28 05:29 54.07202 23.51614 35248 ft 480 kts 69°
2026-04-28 05:29 54.09277 23.62347 35235 ft 477 kts 65°
2026-04-28 05:30 54.11418 23.73053 35232 ft 478 kts 65°
2026-04-28 05:30 54.13210 23.82058 35233 ft 478 kts 65°
2026-04-28 05:31 54.15341 23.92817 35233 ft 479 kts 65°
2026-04-28 05:31 54.17465 24.03604 35221 ft 479 kts 66°
2026-04-28 05:32 54.19574 24.14410 35227 ft 479 kts 66°
2026-04-28 05:32 54.21676 24.25221 35222 ft 480 kts 66°
2026-04-28 05:33 54.23767 24.36037 35220 ft 480 kts 66°
2026-04-28 05:33 54.25847 24.46878 35208 ft 480 kts 66°
2026-04-28 05:34 54.27920 24.57731 35210 ft 480 kts 66°
2026-04-28 05:34 54.29987 24.68590 35204 ft 479 kts 66°
2026-04-28 05:35 54.32037 24.79446 35198 ft 479 kts 67°
2026-04-28 05:35 54.34070 24.90319 35191 ft 479 kts 67°
2026-04-28 05:36 54.36104 25.01203 35182 ft 479 kts 67°
2026-04-28 05:36 54.38129 25.12096 35175 ft 479 kts 67°
2026-04-28 05:37 54.40145 25.22993 35172 ft 479 kts 67°
2026-04-28 05:37 54.42151 25.33910 35165 ft 479 kts 68°
2026-04-28 05:38 54.44146 25.44822 35165 ft 479 kts 68°
2026-04-28 05:38 54.46121 25.55762 35161 ft 479 kts 68°
2026-04-28 05:39 54.47484 25.67031 35157 ft 486 kts 80°
2026-04-28 05:39 54.48141 25.78604 35151 ft 486 kts 80°
2026-04-28 05:40 54.48810 25.90177 35141 ft 486 kts 80°
2026-04-28 05:40 54.49468 26.01749 35136 ft 486 kts 81°
2026-04-28 05:41 54.50110 26.13344 35133 ft 486 kts 81°
2026-04-28 05:41 54.50726 26.24938 35128 ft 487 kts 81°
2026-04-28 05:42 54.51337 26.36527 35127 ft 486 kts 81°
2026-04-28 05:42 54.51947 26.48119 35123 ft 487 kts 81°
2026-04-28 05:43 54.52542 26.59723 35116 ft 487 kts 81°
2026-04-28 05:43 54.53129 26.71332 35116 ft 487 kts 81°
2026-04-28 05:44 54.53699 26.82954 35113 ft 487 kts 82°
2026-04-28 05:44 54.54266 26.94646 35111 ft 487 kts 82°
2026-04-28 05:45 54.54813 27.06185 35106 ft 487 kts 82°
2026-04-28 05:45 54.55343 27.17815 35102 ft 486 kts 82°
2026-04-28 05:46 54.55865 27.29431 35099 ft 486 kts 82°
2026-04-28 05:46 54.56385 27.41121 35098 ft 486 kts 82°
2026-04-28 05:47 54.56889 27.52747 35086 ft 486 kts 83°
2026-04-28 05:47 54.57383 27.64365 35083 ft 486 kts 83°
2026-04-28 05:48 54.57869 27.75983 35083 ft 486 kts 83°
2026-04-28 05:48 54.58343 27.87615 35077 ft 486 kts 83°
2026-04-28 05:49 54.58800 27.99234 35076 ft 486 kts 83°
2026-04-28 05:49 54.59247 28.10870 35065 ft 486 kts 83°
2026-04-28 05:50 54.59685 28.22496 35059 ft 486 kts 83°
2026-04-28 05:50 54.60113 28.34129 35050 ft 486 kts 84°
2026-04-28 05:51 54.60533 28.45750 35048 ft 486 kts 84°
2026-04-28 05:51 54.60931 28.57382 35048 ft 486 kts 84°
2026-04-28 05:52 54.61321 28.69019 35037 ft 486 kts 84°
2026-04-28 05:52 54.61698 28.80652 35031 ft 486 kts 84°
2026-04-28 05:53 54.62068 28.92279 35036 ft 485 kts 84°
2026-04-28 05:53 54.62426 29.03919 35034 ft 485 kts 84°
2026-04-28 05:54 54.62777 29.15551 35020 ft 485 kts 85°
2026-04-28 05:54 54.63117 29.27181 35020 ft 485 kts 85°
2026-04-28 05:55 54.63445 29.38812 35009 ft 485 kts 85°
2026-04-28 05:55 54.63755 29.50459 35005 ft 485 kts 85°
2026-04-28 05:56 54.64050 29.62101 35009 ft 485 kts 85°
2026-04-28 05:56 54.64338 29.73745 34997 ft 485 kts 85°
2026-04-28 05:57 54.64621 29.85386 34989 ft 485 kts 85°
2026-04-28 05:57 54.64894 29.97032 34988 ft 485 kts 85°
2026-04-28 05:58 54.65152 30.08749 34983 ft 485 kts 86°
2026-04-28 05:58 54.65356 30.18419 34980 ft 485 kts 86°
2026-04-28 05:59 54.65636 30.32029 34977 ft 485 kts 86°
2026-04-28 05:59 54.65869 30.43675 34972 ft 485 kts 86°
2026-04-28 06:00 54.66057 30.54053 34972 ft 485 kts 86°
2026-04-28 06:00 54.66253 30.65690 34967 ft 485 kts 86°
2026-04-28 06:01 54.66445 30.77336 34964 ft 485 kts 86°
2026-04-28 06:01 54.66634 30.89058 34962 ft 485 kts 86°
2026-04-28 06:02 54.66835 31.00713 34956 ft 484 kts 83°
2026-04-28 06:02 54.68258 31.11986 34951 ft 480 kts 70°
2026-04-28 06:03 54.70252 31.23014 34953 ft 480 kts 70°
2026-04-28 06:03 54.72218 31.34069 34948 ft 481 kts 71°
2026-04-28 06:04 54.74176 31.45131 34950 ft 481 kts 70°
2026-04-28 06:04 54.76133 31.56204 34949 ft 481 kts 71°
2026-04-28 06:05 54.78081 31.67284 34942 ft 481 kts 71°
2026-04-28 06:05 54.80005 31.78378 34943 ft 481 kts 71°
2026-04-28 06:06 54.81917 31.89485 34936 ft 481 kts 71°
2026-04-28 06:06 54.83833 32.00607 34936 ft 481 kts 71°
2026-04-28 06:07 54.85745 32.11736 34933 ft 481 kts 71°
2026-04-28 06:07 54.87636 32.22872 34927 ft 481 kts 71°
2026-04-28 06:08 54.89510 32.34024 34925 ft 481 kts 72°
2026-04-28 06:08 54.91381 32.45181 34920 ft 481 kts 71°
2026-04-28 06:09 54.93245 32.56335 34916 ft 481 kts 72°
2026-04-28 06:09 54.95092 32.67508 34913 ft 481 kts 72°
2026-04-28 06:10 54.96928 32.78697 34909 ft 481 kts 72°
2026-04-28 06:10 54.98762 32.89893 34904 ft 481 kts 72°
2026-04-28 06:11 55.00584 33.01089 34904 ft 481 kts 72°
2026-04-28 06:11 55.02391 33.12308 34897 ft 481 kts 72°
2026-04-28 06:12 55.04189 33.23545 34894 ft 481 kts 72°
2026-04-28 06:12 55.05969 33.34783 34889 ft 481 kts 72°
2026-04-28 06:13 55.07744 33.46040 34880 ft 481 kts 72°
2026-04-28 06:13 55.09510 33.57303 34876 ft 481 kts 72°
2026-04-28 06:14 55.11275 33.68568 34871 ft 481 kts 72°
2026-04-28 06:14 55.13027 33.79852 34864 ft 481 kts 73°
2026-04-28 06:15 55.14764 33.91141 34860 ft 481 kts 73°
2026-04-28 06:15 55.16491 34.02451 34850 ft 481 kts 73°
2026-04-28 06:16 55.18213 34.13773 34842 ft 481 kts 73°
2026-04-28 06:16 55.19068 34.19434 34639 ft 481 kts 73°
2026-04-28 06:16 55.19914 34.25086 34405 ft 480 kts 73°
2026-04-28 06:17 55.20757 34.30733 34174 ft 479 kts 73°
2026-04-28 06:17 55.21596 34.36369 33686 ft 479 kts 73°
2026-04-28 06:17 55.22439 34.42038 32723 ft 482 kts 73°
2026-04-28 06:18 55.24114 34.53363 31150 ft 477 kts 73°
2026-04-28 06:18 55.24951 34.59042 30420 ft 473 kts 73°
2026-04-28 06:18 55.25771 34.64627 29518 ft 472 kts 73°
2026-04-28 06:18 55.26581 34.70185 28456 ft 470 kts 73°
2026-04-28 06:19 55.27387 34.75742 27321 ft 470 kts 73°
2026-04-28 06:19 55.28184 34.81224 26132 ft 471 kts 73°
2026-04-28 06:19 55.28992 34.86783 25013 ft 470 kts 73°
2026-04-28 06:19 55.29805 34.92397 23949 ft 468 kts 73°
2026-04-28 06:20 55.30599 34.97907 23024 ft 462 kts 73°
2026-04-28 06:20 55.31376 35.03339 22188 ft 454 kts 73°
2026-04-28 06:20 55.32132 35.08662 21420 ft 446 kts 73°
2026-04-28 06:20 55.32873 35.13905 20648 ft 439 kts 73°
2026-04-28 06:21 55.33600 35.19068 19892 ft 432 kts 73°
2026-04-28 06:21 55.34315 35.24159 19149 ft 426 kts 73°
2026-04-28 06:21 55.35018 35.29171 18589 ft 416 kts 73°
2026-04-28 06:21 55.35686 35.33960 18464 ft 397 kts 73°
2026-04-28 06:22 55.36325 35.38566 18331 ft 379 kts 73°
2026-04-28 06:22 55.36934 35.42978 18205 ft 363 kts 73°
2026-04-28 06:22 55.37518 35.47210 17965 ft 351 kts 73°
2026-04-28 06:22 55.38089 35.51342 17613 ft 344 kts 73°
2026-04-28 06:23 55.38548 35.55480 17335 ft 347 kts 81°
2026-04-28 06:23 55.38596 35.59732 17050 ft 350 kts 91°
2026-04-28 06:23 55.38216 35.63979 16773 ft 352 kts 99°
2026-04-28 06:23 55.37721 35.68189 16503 ft 352 kts 98°
2026-04-28 06:24 55.37232 35.72398 16231 ft 351 kts 98°
2026-04-28 06:24 55.36913 35.75175 16077 ft 350 kts 98°
2026-04-28 06:24 55.36428 35.79377 15762 ft 350 kts 98°
2026-04-28 06:24 55.35942 35.83557 15397 ft 348 kts 98°
2026-04-28 06:25 55.35456 35.87722 15028 ft 347 kts 98°
2026-04-28 06:25 55.34970 35.91868 14659 ft 346 kts 99°
2026-04-28 06:25 55.34486 35.96009 14316 ft 345 kts 99°
2026-04-28 06:25 55.34005 36.00134 13964 ft 344 kts 99°
2026-04-28 06:26 55.33526 36.04242 13616 ft 343 kts 99°
2026-04-28 06:26 55.33046 36.08349 13246 ft 342 kts 99°
2026-04-28 06:26 55.32568 36.12437 12900 ft 342 kts 99°
2026-04-28 06:26 55.32089 36.16521 12539 ft 341 kts 99°
2026-04-28 06:27 55.31610 36.20596 12193 ft 340 kts 99°
2026-04-28 06:27 55.31122 36.24708 11838 ft 340 kts 99°
2026-04-28 06:27 55.30641 36.28717 11502 ft 339 kts 99°
2026-04-28 06:27 55.30166 36.32763 11162 ft 337 kts 95°
2026-04-28 06:28 55.30091 36.36835 10911 ft 333 kts 84°
2026-04-28 06:28 55.30168 36.40894 10651 ft 333 kts 83°
2026-04-28 06:28 55.30248 36.44998 10386 ft 332 kts 83°
2026-04-28 06:28 55.30325 36.49005 10132 ft 332 kts 83°
2026-04-28 06:29 55.30404 36.53048 9886 ft 331 kts 83°
2026-04-28 06:29 55.30476 36.57050 9745 ft 317 kts 83°
2026-04-28 06:29 55.30540 36.60865 9618 ft 310 kts 83°
2026-04-28 06:29 55.30605 36.64643 9483 ft 309 kts 82°
2026-04-28 06:30 55.30669 36.68402 9342 ft 308 kts 82°
2026-04-28 06:30 55.30735 36.72149 9202 ft 307 kts 82°
2026-04-28 06:30 55.30800 36.75899 9049 ft 307 kts 83°
2026-04-28 06:30 55.30839 36.78383 8971 ft 307 kts 83°
2026-04-28 06:31 55.30846 36.78788 8955 ft 307 kts 83°
2026-04-28 06:31 55.30886 36.81952 9017 ft 299 kts 83°
2026-04-28 06:31 55.30943 36.85646 8861 ft 305 kts 83°
2026-04-28 06:32 55.31004 36.89373 8723 ft 305 kts 83°
2026-04-28 06:32 55.31062 36.93101 8583 ft 305 kts 83°
2026-04-28 06:32 55.31120 36.96816 8440 ft 304 kts 83°
2026-04-28 06:32 55.31186 37.00528 8304 ft 303 kts 79°
2026-04-28 06:33 55.31682 37.04013 8159 ft 289 kts 57°
2026-04-28 06:33 55.32796 37.06827 8030 ft 275 kts 36°
2026-04-28 06:33 55.34190 37.09112 7881 ft 274 kts 34°
2026-04-28 06:33 55.35584 37.11379 7759 ft 273 kts 35°
2026-04-28 06:34 55.36976 37.13650 7621 ft 273 kts 35°
2026-04-28 06:34 55.38363 37.15919 7481 ft 272 kts 35°
2026-04-28 06:34 55.39749 37.18189 7352 ft 272 kts 35°
2026-04-28 06:34 55.41132 37.20457 7226 ft 272 kts 35°
2026-04-28 06:35 55.42511 37.22725 7083 ft 271 kts 35°
2026-04-28 06:35 55.43893 37.24997 6818 ft 273 kts 35°
2026-04-28 06:35 55.45287 37.27285 6394 ft 274 kts 36°
2026-04-28 06:35 55.46679 37.29572 5972 ft 273 kts 36°
2026-04-28 06:36 55.48067 37.31858 5464 ft 270 kts 36°
2026-04-28 06:36 55.49424 37.34104 4971 ft 265 kts 35°
2026-04-28 06:36 55.50754 37.36308 4524 ft 261 kts 34°
2026-04-28 06:36 55.52063 37.38475 4241 ft 250 kts 34°
2026-04-28 06:37 55.53279 37.40509 4154 ft 232 kts 33°
2026-04-28 06:37 55.54407 37.42399 4138 ft 216 kts 32°
2026-04-28 06:37 55.55477 37.44181 4047 ft 209 kts 32°
2026-04-28 06:37 55.56539 37.45930 3962 ft 208 kts 32°
2026-04-28 06:38 55.57599 37.47671 3874 ft 203 kts 32°
2026-04-28 06:38 55.58655 37.49028 3788 ft 172 kts 12°
2026-04-28 06:38 55.59720 37.49480 3698 ft 147 kts 352°
2026-04-28 06:38 55.60699 37.49264 3317 ft 139 kts 333°
2026-04-28 06:39 55.61582 37.48648 2979 ft 135 kts 329°
2026-04-28 06:39 55.62446 37.48041 2823 ft 133 kts 329°
2026-04-28 06:39 55.63222 37.47226 2794 ft 128 kts 306°
2026-04-28 06:39 55.63492 37.45707 2706 ft 138 kts 271°
2026-04-28 06:40 55.63189 37.44080 2507 ft 138 kts 257°
2026-04-28 06:40 55.62838 37.42532 2313 ft 134 kts 257°
2026-04-28 06:40 55.62495 37.41012 2137 ft 132 kts 256°
2026-04-28 06:40 55.62153 37.39508 1992 ft 132 kts 256°
2026-04-28 06:41 55.61812 37.37995 1831 ft 132 kts 255°
2026-04-28 06:41 55.61472 37.36482 1659 ft 134 kts 254°
2026-04-28 06:41 55.61129 37.34950 1458 ft 133 kts 252°
2026-04-28 06:41 55.60785 37.33415 1273 ft 134 kts 252°
2026-04-28 06:42 55.60435 37.31877 1090 ft 135 kts 251°
2026-04-28 06:42 55.60093 37.30327 903 ft 136 kts 250°
2026-04-28 06:42 55.59745 37.28778 720 ft 133 kts 250°
2026-04-28 06:42 55.59438 37.27399 693 ft 99 kts 249°
2026-04-28 06:43 55.59248 37.26550 687 ft 54 kts 248°
2026-04-28 06:43 55.59136 37.26054 691 ft 34 kts 248°
2026-04-28 06:43 55.59097 37.25780 692 ft 3 kts 295°
2026-04-28 06:43 55.59106 37.25781 690 ft 3 kts
2026-04-28 06:44 55.59187 37.25843 687 ft 21 kts 25°
2026-04-28 06:44 55.59315 37.25939 686 ft 18 kts 23°
2026-04-28 06:44 55.59357 37.26023 691 ft 0 kts 80°
2026-04-28 06:44 55.59364 37.26055 691 ft 5 kts 67°
2026-04-28 06:45 55.59386 37.26146 688 ft 12 kts 68°
2026-04-28 06:45 55.59424 37.26313 687 ft 18 kts 68°
2026-04-28 06:45 55.59487 37.26592 687 ft 30 kts 68°
2026-04-28 06:45 55.59573 37.26889 692 ft 26 kts 47°
2026-04-28 06:46 55.59692 37.27111 691 ft 23 kts 46°
2026-04-28 06:46 55.59801 37.27312 689 ft 22 kts 46°
2026-04-28 06:46 55.59903 37.27501 688 ft 21 kts 46°
2026-04-28 06:46 55.59987 37.27688 686 ft 19 kts 48°
2026-04-28 06:47 55.60080 37.27827 689 ft 17 kts 47°
2026-04-28 06:47 55.60180 37.27858 692 ft 15 kts 339°
2026-04-28 06:47 55.60292 37.27849 688 ft 17 kts
2026-04-28 06:47 55.60402 37.27879 691 ft 15 kts 25°
2026-04-28 06:48 55.60422 37.27969 690 ft 4 kts 114°
2026-04-28 06:48 55.60392 37.28025 692 ft 7 kts 135°
2026-04-28 06:48 55.60378 37.28049 687 ft 1 kts 135°
2026-04-28 06:48 55.60377 37.28050 688 ft 0 kts 135°